Weather History for Kelso-Longview, WA

Change the Weather History Date:

Thursday, December 1, 2011

  Actual Average Record
Temperature  
Mean Temperature 36 °F -  
Max Temperature 44 °F 45 °F 57 °F (2013)
Min Temperature 28 °F 35 °F 21 °F (2014)
Degree Days  
Heating Degree Days 29    
Moisture  
Dew Point 32 °F    
Average Humidity 90    
Maximum Humidity 100    
Minimum Humidity 71    
Precipitation  
Precipitation 0.00 in - - ()
Sea Level Pressure  
Sea Level Pressure 30.63 in    
Wind  
Wind Speed 1 mph (NNW)    
Max Wind Speed 5 mph    
Max Gust Speed -    
Visibility 8 miles    
Events      
Averages and records for this station are not official NWS values.
T = Trace of Precipitation, MM = Missing Value Source: NWS Daily Summary

Daily Weather History Graph

Daily Weather History Graph

Search for Another Location

Airport:

Trip Planner

Search our weather history database for the weather conditions in past years. The results will help you decide how hot, cold, wet, or windy it might be!

Date:

Astronomy

Dec. 01, 2011 Rise Set
Actual Time 7:33 AM PST 4:27 PM PST
Civil Twilight 6:59 AM PST 5:01 PM PST
Nautical Twilight 6:21 AM PST 5:39 PM PST
Astronomical Twilight 5:45 AM PST 6:15 PM PST
Moon 12:06 PM PST (12/1) 11:47 PM PST (12/1)
Length of Visible Light 10h 02m
Length of Day
8h 54m
Waxing Crescent, 44% of the Moon is Illuminated
Dec 1
Waxing Crescent
Dec 2
First Quarter
Dec 10
Full
Dec 17
Last Quarter
Dec 24
New

Hourly Weather History & Observations

Time (PST) Temp. Windchill Dew Point Humidity Pressure Visibility Wind Dir Wind Speed Gust Speed Precip Events Conditions
12:15 AM 33.8 °F - 30.2 °F 87% 30.75 in 10.0 mi Calm Calm - N/A   Clear
12:35 AM 33.8 °F 29.6 °F 30.2 °F 87% 30.76 in 10.0 mi SE 4.6 mph - N/A   Clear
12:55 AM 33.8 °F - 32.0 °F 93% 30.76 in 10.0 mi Calm Calm - N/A   Clear
1:35 AM 32.0 °F - 30.2 °F 93% 30.75 in 10.0 mi Calm Calm - N/A   Clear
1:55 AM 30.2 °F - 28.4 °F 93% 30.75 in 10.0 mi Calm Calm - N/A   Clear
2:35 AM 30.2 °F - 30.2 °F 100% 30.75 in 10.0 mi Calm Calm - N/A   Clear
2:55 AM 28.4 °F - 26.6 °F 93% 30.75 in 2.5 mi Calm Calm - N/A   Clear
3:15 AM 30.2 °F - 28.4 °F 93% 30.75 in 10.0 mi Calm Calm - N/A   Clear
3:35 AM 30.2 °F - 28.4 °F 93% 30.75 in 10.0 mi Calm Calm - N/A   Clear
3:55 AM 28.4 °F - 26.6 °F 93% 30.75 in 7.0 mi Calm Calm - N/A   Clear
4:15 AM 30.2 °F - 28.4 °F 93% 30.75 in 10.0 mi Calm Calm - N/A   Clear
4:35 AM 28.4 °F - 28.4 °F 100% 30.75 in 10.0 mi Calm Calm - N/A   Clear
4:55 AM 28.4 °F - 28.4 °F 100% 30.75 in 9.0 mi Calm Calm - N/A   Mostly Cloudy
5:15 AM 28.4 °F - 26.6 °F 93% 30.75 in 9.0 mi Calm Calm - N/A   Overcast
5:35 AM 30.2 °F 26.7 °F 28.4 °F 93% 30.76 in 10.0 mi NW 3.5 mph - N/A   Overcast
6:15 AM 32.0 °F - 32.0 °F 100% 30.75 in 5.0 mi Calm Calm - N/A   Overcast
6:35 AM 32.0 °F - 30.2 °F 93% 30.75 in 3.0 mi Calm Calm - N/A   Overcast
7:15 AM 32.0 °F - 30.2 °F 93% 30.73 in 0.2 mi Calm Calm - N/A   Overcast
7:35 AM 32.0 °F 28.7 °F 32.0 °F 100% 30.74 in 0.2 mi North 3.5 mph - N/A   Overcast
7:55 AM 32.0 °F - 30.2 °F 93% 30.74 in 0.2 mi Calm Calm - N/A   Overcast
8:15 AM 32.0 °F - 30.2 °F 93% 30.73 in 0.2 mi Calm Calm - N/A   Overcast
8:35 AM 32.0 °F - 30.2 °F 93% 30.73 in 0.2 mi Calm Calm - N/A   Overcast
8:55 AM 32.0 °F - 30.2 °F 93% 30.72 in 0.2 mi Calm Calm - N/A   Overcast
9:15 AM 32.0 °F - 32.0 °F 100% 30.72 in 0.2 mi Calm Calm - N/A   Overcast
9:35 AM 32.0 °F - 32.0 °F 100% 30.71 in 0.2 mi Calm Calm - N/A   Overcast
10:15 AM 33.8 °F - 33.8 °F 100% 30.72 in 0.5 mi Calm Calm - N/A   Overcast
10:35 AM 33.8 °F - 32.0 °F 93% 30.72 in 0.5 mi Calm Calm - N/A   Overcast
10:55 AM 35.6 °F - 35.6 °F 100% 30.70 in 10.0 mi Calm Calm - N/A   Mostly Cloudy
11:15 AM 37.4 °F 34.9 °F 35.6 °F 93% 30.69 in 10.0 mi WNW 3.5 mph - N/A   Clear
11:35 AM 37.4 °F - 33.8 °F 87% 30.67 in 10.0 mi Calm Calm - N/A   Clear
12:15 PM 41.0 °F - 35.6 °F 81% 30.65 in 10.0 mi Calm Calm - N/A   Clear
12:35 PM 42.8 °F - 35.6 °F 76% 30.64 in 10.0 mi Calm Calm - N/A   Clear
12:55 PM 42.8 °F 41.1 °F 35.6 °F 76% 30.63 in 10.0 mi NW 3.5 mph - N/A   Clear
1:15 PM 42.8 °F 41.1 °F 35.6 °F 76% 30.61 in 10.0 mi WNW 3.5 mph - N/A   Clear
1:35 PM 44.6 °F 43.1 °F 35.6 °F 71% 30.61 in 10.0 mi WNW 3.5 mph - N/A   Clear
2:15 PM 44.6 °F - 35.6 °F 71% 30.58 in 10.0 mi Calm Calm - N/A   Clear
2:35 PM 44.6 °F - 35.6 °F 71% 30.57 in 10.0 mi Calm Calm - N/A   Clear
3:15 PM 44.6 °F - 35.6 °F 71% 30.57 in 10.0 mi Calm Calm - N/A   Clear
3:35 PM 44.6 °F - 35.6 °F 71% 30.57 in 10.0 mi Calm Calm - N/A   Clear
3:55 PM 42.8 °F - 35.6 °F 76% 30.56 in 10.0 mi Calm Calm - N/A   Clear
4:15 PM 41.0 °F 38.0 °F 35.6 °F 81% 30.56 in 10.0 mi NNW 4.6 mph - N/A   Clear
4:35 PM 41.0 °F 39.0 °F 35.6 °F 81% 30.55 in 10.0 mi NNW 3.5 mph - N/A   Clear
4:55 PM 37.4 °F - 33.8 °F 87% 30.54 in 10.0 mi Calm Calm - N/A   Clear
5:15 PM 37.4 °F - 35.6 °F 93% 30.53 in 10.0 mi Calm Calm - N/A   Clear
5:35 PM 35.6 °F - 33.8 °F 93% 30.53 in 10.0 mi Calm Calm - N/A   Clear
5:55 PM 35.6 °F - 33.8 °F 93% 30.52 in 10.0 mi Calm Calm - N/A   Clear
6:15 PM 35.6 °F - 33.8 °F 93% 30.50 in 10.0 mi Calm Calm - N/A   Clear
6:35 PM 33.8 °F - 33.8 °F 100% 30.49 in 10.0 mi Calm Calm - N/A   Clear
7:15 PM 33.8 °F - 32.0 °F 93% 30.48 in 6.0 mi Calm Calm - N/A   Clear
7:35 PM 33.8 °F - 32.0 °F 93% 30.48 in 8.0 mi Calm Calm - N/A   Partly Cloudy
7:55 PM 35.6 °F 32.8 °F 33.8 °F 93% 30.50 in 10.0 mi NE 3.5 mph - N/A   Mostly Cloudy
8:15 PM 35.6 °F - 33.8 °F 93% 30.49 in 10.0 mi Calm Calm - N/A   Scattered Clouds
8:35 PM 35.6 °F - 35.6 °F 100% 30.49 in 10.0 mi Calm Calm - N/A   Mostly Cloudy
9:15 PM 35.6 °F - 33.8 °F 93% 30.48 in 8.0 mi Calm Calm - N/A   Mostly Cloudy
9:55 PM 35.6 °F - 33.8 °F 93% 30.46 in 9.0 mi Calm Calm - N/A   Overcast
10:15 PM 35.6 °F 32.8 °F 33.8 °F 93% 30.47 in 10.0 mi NW 3.5 mph - N/A   Overcast
10:35 PM 35.6 °F 32.8 °F 33.8 °F 93% 30.45 in 10.0 mi SE 3.5 mph - N/A   Overcast
10:55 PM 35.6 °F - 33.8 °F 93% 30.46 in 10.0 mi Calm Calm - N/A   Mostly Cloudy
11:15 PM 35.6 °F - 33.8 °F 93% 30.47 in 10.0 mi Calm Calm - N/A   Mostly Cloudy
11:35 PM 35.6 °F - 33.8 °F 93% 30.48 in 10.0 mi Calm Calm - N/A   Overcast
11:55 PM 35.6 °F - 33.8 °F 93% 30.49 in 10.0 mi Calm Calm - N/A   Overcast